This demonstration page uses our WeatherBlox Daily Observations layout. Learn more.

Hourly Observations for December 10, 2019

Temp ( °F °C ) Dew Point ( °F °C ) Humidity (%) Winds ( mph kmh ) Pressure ( in mb ) Visibility ( mi km ) Precip ( " mm )
12:15 am 00:15 Clear 46 8 46 8 100 100 SSW 12 19 29.81 1009 10 16.0934 0 0
12:35 am 00:35 Clear 46 8 46 8 100 100 SSW 10 17 29.81 1009 10 16.0934 0 0
12:55 am 00:55 Clear 46 8 46 8 100 100 SSW 12 19 29.8 1009 10 16.0934 0 0
1:15 am 01:15 Clear 46 8 46 8 100 100 SSW 9 15 29.81 1009 10 16.0934 0 0
1:35 am 01:35 Clear 46 8 46 8 100 100 SSW 12 19 29.81 1009 10 16.0934 0 0
1:55 am 01:55 Clear 46 8 46 8 100 100 SSW 10 17 29.8 1009 10 16.0934 0 0
2:15 am 02:15 Clear 46 8 46 8 100 100 SSW 13 20 29.81 1009 10 16.0934 0 0
2:35 am 02:35 Clear 46 8 46 8 100 100 SSW 12 19 29.81 1009 10 16.0934 0 0
2:55 am 02:55 Clear 46 8 46 8 100 100 SSW 10 17 29.81 1009 10 16.0934 0 0
3:15 am 03:15 Partly Cloudy 46 8 46 8 100 100 SSW 12 19 29.81 1009 10 16.0934 0 0
3:35 am 03:35 Mostly Cloudy 46 8 46 8 100 100 SSW 10 17 29.81 1009 10 16.0934 0 0
3:55 am 03:55 Mostly Cloudy 46 8 46 8 100 100 SW 10 17 29.81 1009 10 16.0934 0 0
4:15 am 04:15 Partly Cloudy 46 8 46 8 100 100 SSW 10 17 29.81 1009 10 16.0934 0 0
4:35 am 04:35 Cloudy 46 8 46 8 100 100 SSW 8 13 29.82 1010 10 16.0934 0 0
4:55 am 04:55 Cloudy 46 8 46 8 100 100 SSW 9 15 29.81 1009 10 16.0934 0 0
5:15 am 05:15 Cloudy 46 8 46 8 100 100 SSW 7 11 29.81 1009 10 16.0934 0 0
5:35 am 05:35 Cloudy 46 8 46 8 100 100 SSW 10 17 29.81 1009 10 16.0934 0 0
5:55 am 05:55 Partly Cloudy 46 8 46 8 100 100 SSW 7 11 29.82 1010 10 16.0934 0 0
6:15 am 06:15 Partly Cloudy 46 8 46 8 100 100 SSW 6 9 29.82 1010 10 16.0934 0 0
6:35 am 06:35 Mostly Cloudy 46 8 46 8 100 100 SSW 7 11 29.83 1010 10 16.0934 0 0
6:55 am 06:55 Cloudy 46 8 46 8 100 100 SW 6 9 29.84 1010 10 16.0934 0 0
7:15 am 07:15 Cloudy 48 9 46 8 94 94 SSW 8 13 29.84 1010 10 16.0934 0 0
7:35 am 07:35 Cloudy 48 9 46 8 94 94 undefined N/A 29.84 1010 10 16.0934 0 0
7:55 am 07:55 Cloudy 48 9 46 8 94 94 SSW 8 13 29.86 1011 10 16.0934 0 0
8:15 am 08:15 Cloudy 48 9 48 9 100 100 SSW 9 15 29.85 1011 10 16.0934 0 0
8:35 am 08:35 Cloudy 50 10 48 9 94 94 SSW 8 13 29.84 1010 10 16.0934 0 0
8:55 am 08:55 Cloudy 50 10 48 9 94 94 SW 7 11 29.85 1011 10 16.0934 0 0
9:15 am 09:15 Cloudy 50 10 50 10 100 100 SW 7 11 29.85 1011 10 16.0934 0 0
9:35 am 09:35 Cloudy 50 10 50 10 100 100 SW 7 11 29.87 1011 10 16.0934 0 0
9:55 am 09:55 Cloudy 50 10 50 10 100 100 WSW 6 9 29.87 1011 10 16.0934 0 0
10:15 am 10:15 Cloudy 50 10 50 10 100 100 SW 6 9 29.88 1012 10 16.0934 0.01 0.254
10:35 am 10:35 Cloudy 50 10 50 10 100 100 SSW 6 9 29.87 1011 7 11.26538 0.02 0.508
10:55 am 10:55 Cloudy 50 10 50 10 100 100 SW 5 7 29.89 1012 5 8.0467 0.04 1.016
11:15 am 11:15 Cloudy 50 10 50 10 100 100 W 3 6 29.9 1012 7 11.26538 0.01 0.254
11:35 am 11:35 Cloudy 50 10 50 10 100 100 W 7 11 29.89 1012 3 4.82802 0.03 0.762
11:55 am 11:55 Cloudy 50 10 50 10 100 100 SW 6 9 29.87 1011 3 4.82802 0.04 1.016
12:15 pm 12:15 Cloudy 50 10 50 10 100 100 W 6 9 29.87 1011 7 11.26538 0 0
12:35 pm 12:35 Cloudy 50 10 50 10 100 100 W 3 6 29.87 1011 7 11.26538 0 0
12:55 pm 12:55 Cloudy 50 10 50 10 100 100 NW 5 7 29.89 1012 7 11.26538 0 0
1:15 pm 13:15 Cloudy 50 10 50 10 100 100 WNW 3 6 29.89 1012 5 8.0467 0.01 0.254
1:35 pm 13:35 Cloudy 50 10 50 10 100 100 S 3 6 29.88 1012 5 8.0467 0.01 0.254
1:55 pm 13:55 Cloudy 50 10 50 10 100 100 SSW 3 6 29.88 1012 7 11.26538 0.02 0.508
2:15 pm 14:15 Cloudy 50 10 50 10 100 100 S 5 7 29.89 1012 7 11.26538 0 0
2:35 pm 14:35 Cloudy 50 10 50 10 100 100 NW 3 6 29.91 1013 5 8.0467 0 0
2:55 pm 14:55 Cloudy 50 10 50 10 100 100 WSW 3 6 29.94 1014 5 8.0467 0 0
3:15 pm 15:15 Cloudy 50 10 50 10 100 100 W 6 9 29.95 1014 3 4.82802 0 0
3:35 pm 15:35 Cloudy 50 10 50 10 100 100 W 5 7 29.95 1014 3 4.82802 0.01 0.254
3:55 pm 15:55 Cloudy 48 9 48 9 100 100 NNW 3 6 29.94 1014 5 8.0467 0.02 0.508
4:15 pm 16:15 Cloudy 48 9 48 9 100 100 NNW 5 7 29.96 1014 10 16.0934 0 0
4:35 pm 16:35 Cloudy 48 9 48 9 100 100 NNW 7 11 29.98 1015 10 16.0934 0 0
4:55 pm 16:55 Cloudy 48 9 46 8 94 94 NNW 8 13 29.99 1015 10 16.0934 0.01 0.254
5:15 pm 17:15 Cloudy 46 8 45 7 93 93 NNW 12 19 30.01 1016 10 16.0934 0 0
5:35 pm 17:35 Cloudy 46 8 43 6 87 87 NNW 14 22 30.02 1017 10 16.0934 0 0
5:55 pm 17:55 Cloudy 46 8 41 5 82 82 NNW 14 22 30.02 1017 10 16.0934 0 0
6:15 pm 18:15 Cloudy 45 7 39 4 81 81 NNW 8 13 30.04 1017 10 16.0934 0 0
6:35 pm 18:35 Cloudy 45 7 37 3 76 76 NNW 20 31 30.06 1018 10 16.0934 0 0
6:55 pm 18:55 Cloudy 43 6 37 3 81 81 NW 18 30 30.09 1019 10 16.0934 0.01 0.254
7:15 pm 19:15 Cloudy 43 6 39 4 87 87 NNW 12 19 30.1 1019 10 16.0934 0.01 0.254
7:35 pm 19:35 Cloudy 41 5 39 4 93 93 NNW 14 22 30.1 1019 10 16.0934 0.01 0.254
7:55 pm 19:55 Cloudy 41 5 37 3 87 87 NNW 12 19 30.11 1020 10 16.0934 0.02 0.508
8:15 pm 20:15 Cloudy 41 5 37 3 87 87 N 10 17 30.11 1020 10 16.0934 0 0
8:35 pm 20:35 Cloudy 41 5 37 3 87 87 NNW 13 20 30.13 1020 10 16.0934 0 0
8:55 pm 20:55 Cloudy 39 4 37 3 93 93 NNW 18 30 30.15 1021 10 16.0934 0 0
9:15 pm 21:15 Cloudy 37 3 36 2 93 93 NNW 20 31 30.16 1021 10 16.0934 0 0
9:35 pm 21:35 Cloudy 36 2 36 2 100 100 NNW 9 15 30.2 1023 5 8.0467 0.01 0.254
9:55 pm 21:55 Cloudy 36 2 36 2 100 100 N 9 15 30.19 1022 10 16.0934 0.01 0.254
10:15 pm 22:15 Cloudy 36 2 36 2 100 100 N 8 13 30.18 1022 10 16.0934 0.01 0.254
10:35 pm 22:35 Cloudy 36 2 34 1 93 93 NNW 8 13 30.21 1023 7 11.26538 0.01 0.254
10:55 pm 22:55 Cloudy 36 2 34 1 93 93 NNW 10 17 30.2 1023 7 11.26538 0.02 0.508
11:15 pm 23:15 Cloudy 36 2 34 1 93 93 NNW 14 22 30.2 1023 10 16.0934 0 0
11:35 pm 23:35 Cloudy 36 2 32 0 87 87 NW 13 20 30.21 1023 10 16.0934 0 0
11:55 pm 23:55 Cloudy 34 1 32 0 93 93 N 8 13 30.21 1023 5 8.0467 0.01 0.254

Powered by AerisWeather